• In Belarus
  • List of Countries
  • For 7 days
  • Water Temperature
  • Satellite Maps
  • Weather Map
  • Weather Widgets
  • user-avatar
    Login

    Hourly Weather Borodyanka

    Today, 11 December, Monday

    Time Temperature Precipitation Wind Pressure Humidity
    00:00 -5°C° 0 mm 5 mps 741 mmHg 88%
    01:00 -5°C° 0 mm 4 mps 742 mmHg 88%
    02:00 -5°C° 0 mm 2 mps 742 mmHg 92%
    03:00 -6°C° 0 mm 3 mps 742 mmHg 90%
    04:00 -6°C° 0 mm 3 mps 743 mmHg 88%
    05:00 -7°C° 0 mm 4 mps 743 mmHg 86%
    06:00 -5°C° 0 mm 4 mps 743 mmHg 85%
    07:00 -6°C° 0 mm 5 mps 743 mmHg 83%
    08:00 -5°C° 0 mm 4 mps 743 mmHg 83%
    09:00 -4°C° 0 mm 4 mps 743 mmHg 81%
    10:00 -3°C° 0 mm 4 mps 743 mmHg 79%
    11:00 -3°C° 0 mm 4 mps 744 mmHg 77%
    12:00 -2°C° 0 mm 4 mps 744 mmHg 77%
    13:00 -1°C° 0 mm 4 mps 744 mmHg 78%
    14:00 -1°C° 0 mm 5 mps 744 mmHg 78%
    15:00 -1°C° 0.2 mm 4 mps 744 mmHg 81%
    16:00 -1°C° 0.2 mm 4 mps 744 mmHg 84%
    17:00 -1°C° 0.2 mm 4 mps 744 mmHg 87%
    18:00 0°C° 0 mm 4 mps 745 mmHg 88%
    19:00 0°C° 0 mm 4 mps 745 mmHg 89%
    20:00 0°C° 0 mm 4 mps 745 mmHg 90%
    21:00 0°C° 0 mm 4 mps 745 mmHg 90%
    22:00 0°C° 0 mm 4 mps 745 mmHg 90%
    23:00 +1°C° 0 mm 4 mps 745 mmHg 90%

    Tomorrow, 12 December, Tuesday

    Time Temperature Precipitation Wind Pressure Humidity
    00:00 +1°C° 0 mm 4 mps 745 mmHg 90%
    01:00 +1°C° 0 mm 4 mps 745 mmHg 90%
    02:00 +1°C° 0 mm 4 mps 745 mmHg 89%
    03:00 +1°C° 0.1 mm 4 mps 745 mmHg 88%
    04:00 +1°C° 0.1 mm 4 mps 745 mmHg 87%
    05:00 +1°C° 0.1 mm 4 mps 745 mmHg 86%
    06:00 +2°C° 0 mm 5 mps 745 mmHg 85%
    07:00 +2°C° 0 mm 5 mps 745 mmHg 84%
    08:00 +2°C° 0 mm 5 mps 745 mmHg 83%
    09:00 +3°C° 0 mm 5 mps 745 mmHg 82%
    10:00 +5°C° 0 mm 5 mps 745 mmHg 80%
    11:00 +5°C° 0 mm 5 mps 746 mmHg 78%
    12:00 +6°C° 0 mm 5 mps 746 mmHg 77%
    13:00 +6°C° 0 mm 5 mps 745 mmHg 76%
    14:00 +7°C° 0 mm 5 mps 745 mmHg 75%
    15:00 +7°C° 0 mm 5 mps 746 mmHg 76%
    16:00 +6°C° 0 mm 5 mps 746 mmHg 77%
    17:00 +6°C° 0 mm 5 mps 746 mmHg 78%
    18:00 +6°C° 0 mm 5 mps 747 mmHg 78%
    19:00 +6°C° 0 mm 5 mps 747 mmHg 78%
    20:00 +6°C° 0 mm 5 mps 747 mmHg 79%
    21:00 +6°C° 0 mm 5 mps 747 mmHg 80%
    22:00 +6°C° 0 mm 4 mps 748 mmHg 81%
    23:00 +5°C° 0 mm 4 mps 748 mmHg 83%

    Day after tomorrow, 13 December, Wednesday

    Time Temperature Precipitation Wind Pressure Humidity
    00:00 +5°C° 0 mm 4 mps 748 mmHg 85%
    01:00 +5°C° 0 mm 3 mps 748 mmHg 86%
    02:00 +4°C° 0 mm 3 mps 748 mmHg 88%
    03:00 +4°C° 0 mm 3 mps 748 mmHg 89%
    04:00 +4°C° 0 mm 3 mps 748 mmHg 89%
    05:00 +5°C° 0 mm 2 mps 748 mmHg 90%
    06:00 +5°C° 0 mm 2 mps 749 mmHg 90%
    07:00 +5°C° 0 mm 2 mps 749 mmHg 91%
    08:00 +5°C° 0 mm 2 mps 749 mmHg 92%
    09:00 +5°C° 0.1 mm 2 mps 750 mmHg 92%
    10:00 +5°C° 0.1 mm 2 mps 750 mmHg 91%
    11:00 +4°C° 0.1 mm 2 mps 750 mmHg 91%
    12:00 +3°C° 0.3 mm 3 mps 750 mmHg 90%
    13:00 +3°C° 0.3 mm 3 mps 750 mmHg 89%
    14:00 +3°C° 0.3 mm 3 mps 750 mmHg 88%
    15:00 +3°C° 0.4 mm 2 mps 750 mmHg 88%
    16:00 +3°C° 0.4 mm 2 mps 750 mmHg 89%
    17:00 +4°C° 0.4 mm 1 mps 750 mmHg 89%
    18:00 +3°C° 0 mm 1 mps 750 mmHg 90%
    19:00 +3°C° 0 mm 1 mps 750 mmHg 90%
    20:00 +3°C° 0 mm 1 mps 751 mmHg 90%
    21:00 +2°C° 0 mm 1 mps 751 mmHg 91%
    22:00 +2°C° 0 mm 1 mps 750 mmHg 91%
    23:00 +2°C° 0 mm 1 mps 750 mmHg 91%

    14 December, Thursday

    Time Temperature Precipitation Wind Pressure Humidity
    00:00 +2°C° 0 mm 1 mps 750 mmHg 91%
    01:00 +1°C° 0 mm 0 mps 750 mmHg 90%
    02:00 +1°C° 0 mm 0 mps 750 mmHg 90%
    03:00 0°C° 0 mm 0 mps 749 mmHg 91%
    04:00 +1°C° 0 mm 1 mps 749 mmHg 91%
    05:00 +1°C° 0 mm 1 mps 749 mmHg 91%
    06:00 +1°C° 0 mm 1 mps 749 mmHg 92%
    07:00 +1°C° 0 mm 1 mps 749 mmHg 92%
    08:00 +1°C° 0 mm 1 mps 749 mmHg 92%
    09:00 +2°C° 0 mm 1 mps 748 mmHg 89%
    10:00 +1°C° 0 mm 2 mps 748 mmHg 87%
    11:00 +2°C° 0 mm 2 mps 748 mmHg 84%
    12:00 +2°C° 0 mm 2 mps 747 mmHg 84%
    13:00 +3°C° 0 mm 2 mps 747 mmHg 83%
    14:00 +3°C° 0 mm 2 mps 746 mmHg 83%
    15:00 +2°C° 0 mm 2 mps 746 mmHg 86%
    16:00 +1°C° 0 mm 3 mps 746 mmHg 89%
    17:00 0°C° 0 mm 3 mps 746 mmHg 93%
    18:00 0°C° 0 mm 3 mps 746 mmHg 93%
    19:00 0°C° 0 mm 3 mps 746 mmHg 94%
    20:00 0°C° 0 mm 3 mps 746 mmHg 94%
    21:00 0°C° 0 mm 3 mps 745 mmHg 94%
    22:00 -1°C° 0 mm 4 mps 745 mmHg 94%
    23:00 -1°C° 0 mm 4 mps 745 mmHg 94%

    15 December, Friday

    Time Temperature Precipitation Wind Pressure Humidity
    00:00 0°C° 0 mm 4 mps 744 mmHg 93%
    01:00 0°C° 0 mm 4 mps 744 mmHg 93%
    02:00 0°C° 0 mm 4 mps 743 mmHg 92%
    03:00 0°C° 0.1 mm 4 mps 743 mmHg 92%
    04:00 0°C° 0.1 mm 5 mps 742 mmHg 92%
    05:00 0°C° 0.1 mm 5 mps 742 mmHg 92%
    06:00 +1°C° 0.3 mm 5 mps 742 mmHg 92%
    07:00 +1°C° 0.3 mm 5 mps 742 mmHg 91%
    08:00 +1°C° 0.3 mm 5 mps 742 mmHg 91%
    09:00 +1°C° 0 mm 5 mps 742 mmHg 88%
    10:00 +2°C° 0 mm 5 mps 742 mmHg 86%
    11:00 +2°C° 0 mm 5 mps 742 mmHg 83%
    12:00 +3°C° 0 mm 5 mps 742 mmHg 80%
    13:00 +5°C° 0 mm 5 mps 742 mmHg 76%
    14:00 +5°C° 0 mm 5 mps 742 mmHg 73%
    15:00 +5°C° 0 mm 4 mps 742 mmHg 76%
    16:00 +4°C° 0 mm 4 mps 743 mmHg 78%
    17:00 +4°C° 0 mm 3 mps 743 mmHg 80%
    18:00 +4°C° 0 mm 3 mps 743 mmHg 82%
    19:00 +4°C° 0 mm 3 mps 743 mmHg 83%
    20:00 +4°C° 0 mm 2 mps 743 mmHg 85%
    21:00 +3°C° 0.2 mm 3 mps 743 mmHg 86%
    22:00 +3°C° 0.2 mm 3 mps 742 mmHg 87%
    23:00 +3°C° 0.2 mm 3 mps 742 mmHg 89%

    16 December, Saturday

    Time Temperature Precipitation Wind Pressure Humidity
    00:00 +3°C° 0.3 mm 4 mps 741 mmHg 89%
    01:00 +3°C° 0.3 mm 5 mps 740 mmHg 89%
    02:00 +3°C° 0.3 mm 5 mps 739 mmHg 89%
    03:00 +4°C° 0.2 mm 6 mps 739 mmHg 89%
    04:00 +5°C° 0.2 mm 6 mps 738 mmHg 89%
    05:00 +5°C° 0.2 mm 7 mps 737 mmHg 89%
    06:00 +5°C° 0.6 mm 7 mps 736 mmHg 89%
    07:00 +6°C° 0.6 mm 7 mps 736 mmHg 89%
    08:00 +6°C° 0.6 mm 7 mps 735 mmHg 89%
    09:00 +6°C° 0.2 mm 7 mps 735 mmHg 85%
    10:00 +8°C° 0.2 mm 7 mps 736 mmHg 81%
    11:00 +7°C° 0.2 mm 8 mps 736 mmHg 77%
    12:00 +6°C° 0 mm 8 mps 736 mmHg 75%
    13:00 +5°C° 0 mm 8 mps 737 mmHg 73%
    14:00 +5°C° 0 mm 8 mps 738 mmHg 71%
    15:00 +4°C° 0 mm 7 mps 739 mmHg 72%
    16:00 +3°C° 0 mm 6 mps 740 mmHg 73%
    17:00 +2°C° 0 mm 6 mps 742 mmHg 74%
    18:00 +1°C° 0 mm 5 mps 743 mmHg 75%
    19:00 +1°C° 0 mm 5 mps 744 mmHg 76%
    20:00 +1°C° 0 mm 4 mps 745 mmHg 76%
    21:00 0°C° 0 mm 4 mps 745 mmHg 78%
    22:00 0°C° 0 mm 4 mps 746 mmHg 80%
    23:00 0°C° 0 mm 4 mps 747 mmHg 82%
    Show more